User: anonymous   Login
Location: Theydon Bois
(51.6750°N, 0.1050°E)
Time: 21:36:56
(UTC+00:00)
Language:

Envisat - Orbit

View from above orbital plane
View from above orbital plane
View from above satellite
View from above satellite

Ground track
Ground track

The orbit data is extracted from the following two-line orbital elements,

1 27386U 02009A   18048.46819789 -.00000000  00000-0  13534-4 0  9991
2 27386  98.2008  88.0757 0001330  83.6285 276.5058 14.37915465836329
Epoch (UTC): 17 February 2018 11:14:12
Eccentricity: 0.0001330
inclination: 98.2008°
perigee height: 764 km
apogee height: 766 km
right ascension of ascending node: 88.0757°
argument of perigee: 83.6285°
revolutions per day: 14.37915465
mean anomaly at epoch: 276.5058°
orbit number at epoch: 83632

The dashed part of the orbit path shows where the satellite is in the earth's shadow,  

DLR